Temperature
16 16 17 17 20 21 21 22 22 22 22 22 21 22 24 25 25 24 20 19 19 21 20 19 18 17 17 17 16 16 16 16 16 16 15 15 15 15 15 15 15 14 14 14 14 14 14 14 14
15 16 16 18 20 20 21 22 22 22 22 20 21 21 23 24 22 20 19 19 19 19 19 18 18 17 17 16 16 16 16 16 16 16 15 15 15 15 15 15 14 14 14 14 14 14 14 14 14
15 15 17 19 19 20 21 22 22 22 20 20 22 22 23 23 20 18 18 18 18 18 18 18 17 17 16 16 16 16 16 16 16 15 15 15 15 15 15 15 14 14 14 14 14 14 14 14 14
14 15 17 19 19 21 22 22 21 21 21 21 21 23 22 19 18 18 18 18 17 17 17 18 17 17 16 16 16 16 16 16 16 16 15 15 15 15 15 14 14 14 14 14 14 14 14 14 14
14 16 18 18 20 21 22 21 20 22 22 21 21 23 23 19 19 18 18 17 17 17 17 17 17 17 16 16 16 16 16 16 16 16 16 16 15 15 15 14 14 14 14 14 14 14 14 14 14
15 17 18 18 20 21 21 20 20 21 22 21 21 23 22 19 19 18 17 17 17 17 16 16 16 16 16 16 16 16 16 16 16 16 16 16 16 15 15 15 14 14 14 14 14 14 14 14 14
16 17 18 19 20 20 20 19 20 21 22 22 21 22 22 19 19 18 17 17 17 16 16 16 16 16 16 16 16 16 16 16 16 16 16 16 16 15 15 14 14 14 14 14 14 14 14 14 14
14 17 18 19 19 20 20 19 19 20 21 21 20 22 23 18 19 18 17 17 16 16 16 16 16 15 16 16 16 16 16 16 16 16 16 16 16 16 15 14 14 14 14 14 14 14 14 14 14
13 16 17 18 18 19 19 19 19 19 20 19 20 20 19 18 19 18 17 17 16 16 16 16 16 15 15 15 16 16 16 16 16 16 16 16 16 15 15 15 14 14 14 14 14 14 14 14 14
13 15 17 18 18 18 18 18 19 19 20 20 19 18 18 18 18 17 17 16 16 16 16 16 16 16 15 16 16 15 16 16 16 16 16 16 15 15 15 15 14 14 14 14 14 14 14 13 13
14 15 16 15 15 16 17 18 18 19 20 20 20 19 17 17 17 16 16 16 16 16 16 15 16 16 15 16 16 16 16 16 16 15 15 15 15 15 15 15 15 14 14 14 14 14 13 13 13
14 14 15 15 14 15 16 17 17 18 19 18 17 17 16 16 16 15 15 15 15 15 16 15 16 16 15 16 16 16 16 16 16 16 16 16 16 16 15 15 15 14 14 14 14 13 13 13 13
13 13 13 14 14 14 15 16 16 17 17 16 16 16 16 16 16 15 15 15 15 15 15 16 16 16 16 16 16 16 16 16 16 16 16 16 16 16 15 15 15 14 14 14 14 13 13 13 12
13 13 13 14 14 14 15 15 15 16 16 16 16 16 16 16 15 15 15 15 15 15 15 16 16 16 16 16 16 16 16 16 16 16 16 16 16 16 16 15 15 14 14 14 14 13 13 13 12
12 13 13 13 14 14 14 15 16 16 16 16 16 16 16 16 15 15 15 15 15 15 15 16 16 16 16 16 16 16 16 16 16 16 16 16 16 16 15 15 15 14 14 14 13 13 13 13 13
12 12 12 14 14 14 14 15 17 15 15 16 16 17 16 15 15 15 15 15 15 15 15 16 16 16 17 17 16 16 16 16 16 16 16 16 15 15 15 15 15 14 14 14 13 13 13 13 12
11 12 13 13 14 14 14 14 16 14 14 16 16 16 16 16 15 15 15 16 16 16 16 16 16 17 17 17 16 16 16 16 16 16 16 16 15 15 15 14 14 14 14 13 13 13 12 12 12
12 13 13 13 13 13 13 14 15 14 14 15 16 16 15 15 15 16 15 16 16 16 16 16 16 17 17 17 16 16 16 16 16 16 16 16 15 15 14 14 14 14 13 13 13 12 12 12 12
13 13 13 13 13 13 13 14 15 15 14 15 15 15 15 15 15 15 15 16 16 16 16 16 16 17 16 16 16 16 17 17 17 17 16 16 15 15 14 14 14 13 13 13 13 12 12 12 12
12 12 12 12 12 13 13 13 14 14 14 14 14 15 14 14 14 14 15 15 16 16 16 16 16 16 16 16 17 17 17 17 17 17 16 16 16 15 15 14 14 14 13 13 12 12 12 12 12
11 12 12 12 11 11 12 14 14 13 13 12 12 12 13 13 13 13 14 14 15 15 16 16 16 16 16 16 16 16 16 16 16 16 17 17 16 16 16 15 14 14 13 13 13 13 12 12 12
10 11 12 11 12 12 12 14 14 13 13 12 12 12 12 11 12 12 12 13 14 15 15 15 16 16 16 16 16 15 15 15 16 16 16 17 16 16 16 15 14 14 13 13 13 13 12 12 11
10 10 11 11 11 11 12 13 14 13 13 12 12 11 11 11 11 11 12 13 13 14 14 15 15 15 15 15 15 15 15 15 15 15 15 16 16 16 15 15 14 13 13 13 13 13 12 12 11
9 10 9 10 10 10 12 13 14 13 13 12 12 11 10 10 10 10 11 12 13 13 14 14 14 14 14 14 14 14 14 15 14 14 15 15 15 15 15 15 14 13 13 13 12 12 12 12 11
9 9 9 9 10 11 11 11 14 13 12 12 12 11 10 10 10 10 10 11 12 12 13 13 13 13 14 14 14 14 14 14 14 14 14 14 14 14 14 14 13 13 12 12 12 11 11 11 11
9 10 10 11 11 12 9 11 13 12 11 11 10 10 10 10 9 10 10 10 11 12 12 12 12 13 13 13 13 13 13 13 13 13 13 13 13 13 13 13 13 12 11 11 11 11 11 11 10
8 9 10 10 9 11 12 11 11 11 11 11 11 10 10 9 9 9 9 10 10 11 11 11 12 12 12 12 12 13 13 12 12 12 12 12 12 12 12 12 12 11 11 11 10 10 10 10 10
9 9 9 9 10 12 12 12 12 11 11 11 11 11 10 9 9 9 9 9 10 10 10 10 11 11 11 11 11 12 12 12 11 11 11 11 11 11 11 11 10 10 10 10 10 10 9 9 9
8 8 9 10 10 11 12 13 12 12 12 11 11 10 10 9 8 8 8 8 9 9 9 9 9 10 10 10 10 10 10 10 10 10 10 10 10 10 10 10 10 9 9 9 9 9 9 8 8
9 9 9 9 9 9 11 12 11 12 12 11 10 10 9 8 8 7 7 7 8 8 8 8 8 8 9 9 9 9 9 9 9 9 9 9 9 9 9 9 9 8 8 8 8 8 8 7 7
Wind_Speed
3 3 3 3 5 7 13 9 5 4 4 1 2 5 5 5 5 1 3 9 12 18 20 21 19 19 19 19 18 18 17 16 15 14 13 11 10 9 8 7 8 8 10 11 13 13 13 13 13
4 4 4 5 9 13 13 11 11 8 2 3 4 6 6 5 2 2 4 10 15 17 19 20 20 19 19 19 19 18 17 15 14 13 12 11 9 8 7 8 8 9 11 13 14 14 13 13 12
5 4 6 7 13 17 13 8 10 7 4 4 3 4 4 2 2 2 6 14 16 16 17 19 20 19 18 19 19 18 17 15 14 13 12 10 9 8 8 9 10 11 13 13 14 14 13 12 11
6 6 7 13 20 20 16 4 4 5 4 3 3 3 2 2 3 3 11 15 16 15 17 19 19 18 18 18 18 17 16 15 14 13 11 10 9 9 9 10 12 13 13 13 13 13 12 11 10
6 7 13 19 23 20 16 11 5 5 3 2 4 4 1 3 3 7 14 15 16 15 15 19 18 18 18 18 17 17 15 14 13 13 11 10 10 10 11 12 13 13 13 13 13 12 11 10 9
9 9 16 22 24 20 15 14 12 12 9 6 5 5 1 3 4 10 14 14 15 14 14 17 17 18 18 17 16 16 15 14 13 12 11 11 10 11 11 12 12 12 12 12 11 11 10 9 9
12 14 22 24 22 21 16 13 16 15 14 9 4 4 2 4 6 10 13 13 13 14 14 15 16 16 17 16 16 15 15 14 13 12 11 11 11 11 11 11 11 11 11 11 11 10 9 8 8
9 9 20 22 21 21 15 13 11 15 13 6 5 6 2 5 8 10 11 11 12 13 13 13 14 14 15 15 16 15 15 14 14 12 12 12 11 11 10 10 10 10 10 10 10 9 9 9 8
7 12 20 21 17 15 11 13 11 7 9 7 6 4 2 7 11 11 9 9 11 12 12 12 13 13 13 13 14 15 15 14 14 13 14 13 11 11 11 9 9 9 10 10 10 9 9 9 9
11 16 22 12 10 9 11 12 10 8 11 10 9 5 2 10 12 13 13 13 14 14 13 12 12 12 12 11 12 12 13 13 13 12 14 11 10 9 9 10 9 9 10 10 9 9 9 7 7
12 16 13 7 6 5 8 8 7 10 10 9 9 6 5 10 12 13 13 13 12 12 12 11 11 12 12 10 10 10 10 11 12 12 13 11 10 9 9 10 10 9 10 8 9 9 7 6 5
12 13 10 8 5 4 5 5 6 9 5 4 2 1 5 10 13 13 13 12 11 11 12 12 11 11 11 11 9 10 9 10 10 12 13 11 9 9 9 9 9 9 8 8 8 6 7 6 6
15 10 9 7 5 4 4 6 5 7 5 3 2 3 5 9 11 12 12 11 11 11 12 12 12 12 11 10 9 9 10 10 11 11 13 13 10 9 9 9 9 9 8 8 7 7 7 7 6
14 10 9 9 9 7 8 10 9 10 7 7 6 6 6 8 10 11 12 13 13 12 12 12 13 13 12 11 10 9 10 10 11 12 14 15 12 10 10 9 9 9 9 9 8 8 7 6 6
10 11 10 11 11 7 7 15 18 15 11 12 11 9 8 8 9 11 12 12 12 12 13 14 14 14 14 13 12 10 10 11 11 12 15 16 15 13 11 9 9 10 10 10 9 8 7 6 6
12 12 12 12 13 11 10 17 11 10 13 16 15 13 11 10 11 11 11 12 12 12 12 13 12 14 15 14 12 10 11 12 12 13 14 17 18 16 13 10 10 12 11 10 8 8 7 7 7
11 14 17 12 12 11 14 13 7 7 10 13 13 13 12 11 12 11 11 12 12 13 13 14 14 15 15 14 12 11 11 12 12 13 14 16 19 18 16 12 12 13 11 10 9 9 8 8 7
17 17 16 15 9 13 15 14 9 7 8 11 12 12 12 12 12 10 9 10 11 11 12 13 14 15 14 12 11 10 11 11 12 13 15 17 18 19 18 13 14 14 11 11 11 11 9 8 7
13 14 13 11 7 10 14 15 13 12 11 13 13 13 12 12 10 8 7 8 8 9 11 12 13 13 12 10 11 11 12 12 12 13 17 18 18 19 18 13 14 14 13 14 14 12 11 9 8
12 13 11 7 5 6 8 12 12 12 12 12 12 12 11 10 9 7 6 6 7 8 9 10 11 12 12 12 11 10 11 10 12 11 14 19 20 20 18 17 15 15 14 16 16 14 10 8 9
12 12 11 7 6 4 5 8 9 6 6 6 7 8 8 8 8 6 5 4 4 5 5 6 8 10 11 12 10 8 9 8 10 13 14 17 20 21 20 19 17 16 16 15 17 17 16 12 11
10 8 8 7 6 5 4 5 5 5 5 4 3 3 3 3 3 3 2 2 2 3 3 4 5 7 8 9 10 13 12 13 15 13 13 15 17 19 20 19 18 17 15 16 17 17 15 14 11
6 7 6 5 4 3 5 6 4 6 6 5 4 3 2 1 1 1 1 0 1 2 2 3 4 4 5 7 9 12 13 14 13 13 14 14 14 16 17 18 16 16 15 17 16 16 17 14 13
10 8 5 3 3 6 8 8 5 6 7 7 5 5 4 4 3 3 2 2 2 3 3 2 2 3 4 6 8 10 13 14 14 15 14 13 11 12 15 16 16 16 14 15 15 15 17 14 13
9 8 5 5 6 6 5 6 4 5 6 6 6 5 4 4 4 4 4 4 4 5 5 4 3 3 4 5 7 9 11 13 15 15 14 14 12 11 13 13 14 13 13 12 12 12 13 13 12
10 8 4 5 6 4 5 6 3 4 4 5 4 3 3 4 4 4 4 4 5 5 5 5 5 5 5 5 6 7 9 9 10 12 12 12 11 11 11 12 11 11 10 10 9 8 9 8 9
8 6 1 1 1 3 5 4 3 5 7 7 5 3 3 4 4 4 4 5 5 5 6 6 6 6 6 6 7 7 8 9 10 11 11 9 9 7 9 9 9 9 9 9 9 7 8 8 7
2 6 4 4 4 4 5 5 7 14 13 9 5 3 4 4 4 4 4 5 5 5 6 6 7 7 7 7 6 6 7 8 8 7 7 7 8 7 7 7 8 8 8 8 8 8 8 9 8
6 5 4 3 2 3 3 3 4 14 13 9 4 3 3 3 3 3 3 4 5 5 6 6 7 7 7 8 7 7 6 6 5 4 5 5 4 5 6 7 7 7 8 9 9 9 11 11 10
5 6 6 4 4 3 2 1 4 10 10 6 1 3 3 2 2 2 2 3 4 5 6 6 7 7 7 7 7 6 6 5 3 2 2 1 2 3 4 6 7 8 8 9 10 11 11 11 11
Wind_Direction
217 235 229 219 227 230 237 226 221 205 205 210 266 251 243 235 225 211 73 156 148 151 151 154 154 155 154 151 146 143 142 141 141 140 138 136 135 138 137 140 135 132 130 126 120 114 110 107 104
204 196 205 213 229 229 230 227 223 222 218 310 272 245 242 241 299 46 139 154 154 152 152 158 152 154 153 150 147 146 145 144 142 140 139 136 134 136 138 136 134 128 126 123 119 115 112 109 106
179 207 207 212 227 230 229 221 228 221 255 271 276 242 259 290 11 111 146 155 154 153 154 150 151 154 153 151 149 148 147 146 144 141 139 135 132 131 129 130 129 124 121 118 119 118 116 111 108
181 184 212 225 227 228 231 213 188 191 202 218 296 261 225 26 353 118 148 156 155 156 154 151 153 153 152 151 151 150 149 148 146 143 139 137 134 130 125 121 120 120 120 121 121 121 118 113 110
199 198 211 225 230 228 230 223 186 193 190 209 308 299 232 66 63 137 153 157 157 157 154 155 153 152 153 153 153 152 152 151 148 145 144 142 137 129 122 120 121 123 123 123 124 123 119 116 114
192 207 218 223 226 226 224 225 225 238 244 264 290 286 121 81 121 148 155 160 159 157 155 156 153 153 155 156 156 156 156 154 151 149 150 148 143 135 128 126 127 128 128 128 127 126 123 121 119
206 208 224 226 227 223 220 218 224 233 240 246 264 267 164 116 133 154 158 162 161 161 160 162 166 163 159 159 160 161 158 156 155 155 153 148 141 141 139 136 136 133 131 131 130 129 127 126 125
221 216 226 227 228 227 216 211 225 232 241 237 232 244 189 127 145 153 157 164 167 169 169 169 172 173 173 171 166 162 159 159 157 155 149 142 140 146 147 150 143 139 136 133 132 132 130 127 127
203 218 221 217 225 226 204 208 216 223 229 214 220 247 39 135 150 156 162 171 178 180 178 177 177 177 178 177 169 168 164 163 161 159 151 157 167 164 164 158 145 145 140 137 138 135 130 128 127
200 220 224 221 219 209 189 203 201 194 210 213 212 204 158 160 169 176 182 184 186 188 187 185 185 181 181 176 175 181 180 177 183 177 173 181 176 172 165 148 149 143 140 142 142 140 147 164 152
205 225 222 203 199 191 180 190 194 205 208 210 210 206 180 183 188 192 195 195 194 193 192 194 192 189 186 182 184 183 186 186 191 187 184 183 178 173 175 171 169 167 165 167 155 168 179 183 171
209 221 217 205 190 185 178 181 197 215 203 147 146 233 197 199 202 202 201 201 198 198 198 198 199 197 197 192 191 191 191 191 192 192 190 186 184 185 185 187 184 184 186 183 186 190 183 186 182
212 208 205 209 202 214 220 222 230 227 213 222 266 254 220 214 212 210 209 207 205 205 203 202 202 205 204 202 201 202 201 199 197 195 196 195 192 192 189 193 191 195 192 190 194 196 188 190 188
208 203 200 212 221 228 238 246 243 236 232 238 242 244 233 224 218 213 212 213 211 210 208 204 205 207 209 208 207 209 208 205 205 201 202 201 201 198 194 196 197 198 198 198 198 198 193 195 194
193 204 216 221 221 222 231 246 237 240 238 243 243 244 241 236 226 223 219 219 218 216 213 209 207 208 211 214 214 214 212 210 210 208 207 206 207 204 201 202 200 201 201 199 201 198 199 196 193
190 206 221 217 216 213 217 245 232 226 231 239 243 244 242 239 235 231 227 225 223 221 218 214 209 211 213 215 215 216 216 215 215 213 212 210 211 209 207 208 206 203 199 200 199 199 199 197 199
189 209 214 209 207 206 216 246 234 216 225 234 237 240 241 242 239 236 233 231 229 225 221 217 213 215 215 215 217 218 218 219 219 218 217 214 214 212 211 213 210 203 202 203 202 204 205 203 202
193 203 207 207 192 206 219 234 227 226 232 239 239 240 241 244 244 242 237 234 232 231 227 222 216 217 216 213 215 219 222 223 223 222 221 218 216 215 215 216 214 206 204 205 204 203 205 208 197
193 194 198 200 180 206 225 238 242 245 244 244 244 243 243 245 249 249 242 233 227 226 227 226 223 219 214 211 212 215 221 223 223 225 225 223 220 217 216 217 215 210 210 209 206 201 201 201 187
183 189 189 174 175 215 233 247 248 246 244 246 247 243 241 242 242 242 241 234 228 225 226 228 227 225 219 218 217 220 223 226 226 225 228 226 223 220 217 217 216 213 214 213 209 201 202 197 190
190 195 185 169 163 192 256 248 226 222 225 231 237 242 243 242 242 244 241 235 231 233 235 234 233 232 227 226 224 223 224 229 227 226 227 226 224 222 219 220 220 216 214 215 210 205 203 202 199
189 192 180 169 189 198 227 240 192 176 171 172 179 188 207 218 226 230 229 227 237 254 259 253 248 241 236 230 226 223 223 227 230 231 231 230 226 225 223 221 221 219 216 218 214 210 210 207 201
166 156 166 185 209 231 215 242 196 169 165 147 129 116 111 125 149 151 137 30 346 322 301 283 269 257 251 240 232 232 235 238 242 240 239 236 231 228 226 223 221 221 219 219 216 211 212 211 208
133 128 117 137 203 235 214 220 208 181 169 145 123 101 83 80 90 90 81 66 42 23 9 344 302 277 269 257 245 237 240 243 246 245 243 240 237 231 227 225 223 223 221 220 218 212 212 212 212
162 160 164 183 204 222 163 216 226 149 155 151 132 100 69 69 77 73 64 53 39 26 16 2 346 320 301 278 261 252 249 248 248 248 248 245 242 236 229 224 225 224 221 218 214 210 209 208 206
181 194 204 199 199 174 176 221 171 146 160 158 141 99 67 62 59 56 48 38 31 21 11 2 351 336 326 305 285 270 260 254 252 251 250 249 247 243 235 225 223 220 214 207 201 198 197 194 195
166 195 256 114 105 208 199 212 203 160 163 161 149 105 62 44 41 41 37 28 18 11 6 358 348 340 335 323 305 287 275 264 260 257 254 253 249 243 231 220 213 207 199 192 182 183 179 169 171
161 154 167 191 199 216 195 205 183 171 168 162 145 83 39 23 23 25 23 16 9 4 359 357 353 345 339 333 322 307 293 281 272 264 256 250 245 233 218 211 200 191 184 174 165 158 154 146 142
153 169 188 182 240 242 206 161 151 170 165 156 131 42 6 359 359 5 9 8 5 3 0 357 354 350 347 344 336 327 318 308 296 275 262 253 237 218 206 194 181 173 164 157 152 148 145 141 135
200 188 180 191 198 219 259 127 116 167 165 165 160 339 335 337 339 349 5 7 6 3 0 358 355 354 351 348 346 347 346 347 346 337 317 252 196 179 170 157 147 143 145 145 143 140 140 138 137
Height
1527 1530 1532 1535 1533 1529 1523 1519 1520 1521 1520 1522 1522 1521 1518 1515 1515 1519 1518 1517 1518 1521 1524 1527 1530 1533 1535 1538 1540 1542 1544 1546 1547 1548 1548 1549 1549 1549 1549 1550 1550 1550 1551 1552 1553 1553 1553 1553 1553
1526 1529 1533 1533 1528 1526 1521 1517 1519 1519 1520 1522 1521 1520 1518 1516 1517 1517 1515 1516 1519 1522 1525 1528 1530 1533 1536 1538 1540 1542 1544 1546 1547 1548 1548 1549 1549 1549 1549 1550 1550 1551 1552 1553 1554 1554 1554 1554 1554
1524 1527 1531 1527 1522 1519 1515 1515 1516 1518 1521 1521 1520 1518 1517 1516 1517 1516 1514 1516 1519 1523 1526 1528 1531 1533 1536 1538 1541 1543 1544 1546 1547 1548 1548 1549 1549 1549 1550 1550 1551 1552 1553 1554 1555 1555 1556 1556 1556
1524 1528 1528 1522 1516 1512 1511 1514 1516 1518 1520 1520 1519 1517 1517 1517 1516 1515 1514 1517 1520 1524 1527 1528 1531 1534 1536 1539 1541 1543 1544 1546 1547 1548 1548 1549 1549 1550 1550 1551 1552 1553 1554 1555 1556 1557 1557 1557 1557
1522 1523 1520 1515 1510 1508 1511 1514 1518 1517 1517 1518 1518 1516 1515 1515 1514 1514 1515 1518 1522 1525 1527 1529 1532 1534 1537 1539 1541 1542 1544 1546 1547 1548 1548 1549 1550 1550 1551 1552 1553 1554 1555 1556 1557 1558 1558 1558 1558
1520 1516 1511 1508 1506 1506 1511 1515 1517 1516 1516 1517 1518 1515 1515 1515 1514 1515 1517 1520 1523 1525 1527 1529 1532 1535 1537 1539 1541 1542 1544 1545 1546 1547 1548 1549 1550 1550 1551 1553 1554 1555 1556 1557 1558 1558 1559 1559 1559
1514 1510 1503 1500 1501 1503 1509 1514 1514 1513 1514 1516 1517 1515 1514 1515 1515 1516 1518 1521 1523 1526 1528 1530 1532 1534 1537 1539 1541 1542 1544 1545 1546 1547 1548 1549 1550 1551 1552 1553 1554 1555 1556 1557 1558 1559 1559 1560 1560
1510 1507 1501 1498 1499 1500 1506 1511 1511 1512 1512 1515 1516 1514 1513 1515 1515 1516 1518 1520 1523 1525 1528 1530 1532 1534 1536 1538 1540 1542 1543 1545 1546 1547 1548 1549 1550 1551 1552 1553 1554 1555 1556 1557 1558 1559 1560 1560 1561
1509 1507 1497 1496 1499 1500 1505 1508 1509 1511 1512 1513 1514 1514 1514 1514 1514 1516 1517 1519 1522 1524 1527 1529 1532 1534 1536 1538 1539 1541 1542 1544 1545 1546 1547 1549 1550 1551 1552 1553 1554 1555 1556 1557 1558 1559 1560 1560 1561
1506 1500 1493 1495 1499 1501 1504 1505 1507 1508 1509 1510 1511 1512 1512 1513 1514 1515 1516 1517 1520 1522 1525 1528 1530 1533 1535 1537 1538 1540 1542 1543 1545 1546 1547 1548 1550 1551 1552 1552 1554 1555 1556 1557 1558 1558 1559 1560 1560
1501 1496 1496 1501 1503 1503 1503 1504 1505 1505 1505 1506 1508 1510 1510 1512 1513 1514 1515 1518 1519 1522 1524 1526 1529 1531 1533 1535 1537 1539 1540 1542 1543 1545 1546 1547 1548 1549 1550 1552 1553 1554 1555 1556 1557 1558 1559 1559 1560
1498 1498 1499 1501 1503 1503 1503 1504 1504 1504 1504 1506 1507 1508 1509 1510 1511 1512 1514 1516 1518 1520 1522 1524 1527 1529 1531 1534 1535 1537 1539 1540 1541 1543 1544 1546 1547 1548 1549 1551 1552 1553 1554 1555 1556 1557 1558 1558 1559
1496 1497 1500 1501 1502 1503 1503 1503 1504 1504 1505 1505 1505 1506 1507 1508 1509 1511 1513 1515 1516 1518 1520 1522 1524 1527 1529 1531 1533 1535 1536 1538 1539 1541 1542 1543 1545 1546 1547 1549 1550 1551 1552 1553 1554 1555 1556 1557 1557
1494 1497 1499 1500 1501 1502 1503 1502 1503 1501 1504 1504 1505 1505 1506 1507 1508 1509 1510 1512 1514 1516 1518 1520 1522 1524 1526 1528 1530 1532 1534 1535 1537 1538 1539 1541 1542 1544 1545 1546 1547 1549 1550 1551 1552 1553 1554 1555 1555
1494 1496 1497 1498 1499 1500 1502 1499 1497 1499 1502 1502 1502 1503 1504 1504 1505 1507 1508 1510 1512 1514 1516 1517 1519 1522 1524 1526 1528 1529 1531 1532 1534 1535 1536 1538 1539 1541 1542 1543 1544 1546 1547 1548 1549 1550 1551 1552 1552
1492 1494 1494 1493 1496 1498 1502 1493 1491 1496 1498 1498 1499 1500 1501 1501 1502 1504 1505 1507 1509 1511 1513 1515 1516 1518 1520 1522 1524 1526 1528 1529 1530 1532 1533 1534 1536 1537 1538 1539 1541 1543 1544 1545 1546 1547 1548 1549 1549
1488 1487 1487 1489 1492 1493 1495 1490 1491 1493 1494 1494 1495 1496 1497 1497 1499 1500 1501 1503 1505 1507 1509 1511 1513 1515 1517 1519 1521 1522 1524 1525 1526 1528 1529 1530 1531 1533 1534 1535 1537 1538 1540 1541 1542 1543 1545 1546 1546
1478 1478 1482 1484 1487 1490 1490 1488 1489 1490 1491 1491 1491 1491 1492 1493 1494 1496 1497 1498 1500 1502 1505 1507 1508 1511 1513 1514 1516 1517 1519 1520 1521 1522 1524 1525 1527 1528 1529 1530 1532 1533 1535 1536 1537 1539 1540 1542 1542
1472 1477 1480 1481 1486 1488 1486 1486 1485 1486 1487 1487 1487 1487 1488 1488 1490 1491 1492 1493 1495 1497 1499 1501 1504 1506 1507 1509 1510 1511 1513 1514 1516 1517 1519 1520 1521 1523 1524 1525 1527 1528 1529 1530 1532 1534 1535 1536 1538
1474 1477 1479 1484 1487 1486 1484 1483 1481 1482 1482 1483 1482 1483 1484 1484 1485 1486 1487 1488 1490 1492 1494 1496 1498 1500 1502 1503 1505 1506 1508 1509 1510 1511 1513 1514 1515 1516 1518 1519 1520 1521 1523 1524 1526 1527 1529 1530 1532
1474 1475 1477 1481 1486 1487 1486 1478 1477 1478 1480 1480 1480 1480 1480 1480 1481 1482 1482 1483 1484 1486 1488 1490 1492 1494 1496 1497 1499 1500 1501 1502 1504 1505 1506 1507 1508 1509 1510 1512 1514 1515 1516 1517 1519 1520 1522 1524 1525
1475 1476 1478 1481 1481 1479 1483 1472 1471 1474 1476 1477 1477 1477 1477 1477 1477 1478 1478 1479 1480 1482 1484 1485 1487 1489 1490 1491 1492 1493 1494 1495 1496 1498 1499 1500 1501 1502 1503 1505 1506 1507 1509 1510 1512 1513 1515 1517 1518
1475 1478 1480 1481 1481 1481 1480 1476 1466 1472 1473 1475 1476 1476 1476 1475 1475 1475 1475 1476 1477 1478 1479 1480 1482 1483 1484 1485 1486 1487 1487 1489 1490 1491 1492 1493 1494 1495 1496 1497 1498 1500 1501 1503 1504 1506 1508 1509 1511
1477 1481 1484 1484 1483 1482 1473 1473 1463 1466 1470 1473 1475 1475 1475 1474 1474 1474 1474 1474 1475 1475 1475 1476 1477 1478 1479 1480 1480 1480 1481 1482 1483 1484 1484 1485 1486 1487 1488 1489 1490 1492 1493 1495 1496 1498 1500 1501 1503
1477 1480 1482 1483 1481 1472 1476 1474 1463 1467 1471 1473 1474 1475 1475 1474 1474 1473 1473 1473 1473 1473 1473 1473 1473 1474 1474 1474 1474 1474 1475 1475 1475 1476 1477 1477 1478 1478 1480 1481 1482 1483 1485 1487 1489 1490 1492 1494 1495
1473 1473 1472 1469 1467 1466 1479 1471 1464 1470 1473 1474 1475 1475 1475 1474 1473 1472 1472 1471 1471 1471 1471 1470 1470 1470 1469 1469 1469 1469 1468 1468 1468 1469 1469 1469 1470 1471 1472 1473 1474 1476 1477 1479 1481 1483 1484 1486 1488
1473 1473 1473 1471 1474 1469 1464 1467 1468 1471 1472 1474 1475 1475 1474 1473 1472 1471 1470 1470 1469 1469 1468 1467 1467 1466 1465 1464 1463 1463 1462 1462 1461 1461 1462 1462 1463 1464 1465 1466 1467 1468 1470 1471 1473 1475 1477 1479 1480
1472 1472 1475 1474 1470 1461 1459 1459 1458 1467 1469 1471 1473 1473 1473 1472 1471 1470 1469 1468 1467 1466 1465 1464 1463 1462 1461 1460 1458 1457 1456 1455 1455 1454 1454 1455 1455 1456 1457 1458 1459 1461 1462 1464 1466 1468 1470 1472 1473
1474 1475 1472 1469 1469 1463 1455 1455 1456 1461 1465 1469 1471 1472 1472 1471 1470 1469 1467 1466 1465 1464 1463 1461 1460 1459 1457 1455 1454 1452 1451 1450 1448 1448 1448 1448 1449 1449 1450 1452 1453 1454 1456 1457 1459 1461 1463 1465 1467
1468 1468 1469 1469 1472 1471 1462 1460 1461 1462 1466 1469 1470 1471 1470 1469 1468 1467 1466 1464 1463 1461 1460 1458 1457 1455 1454 1452 1450 1448 1446 1445 1444 1443 1443 1443 1443 1444 1445 1446 1447 1449 1451 1452 1454 1456 1458 1460 1462